Weather History for KLTS - August, 2014

Change the Weather History Date:

Tuesday, August 19, 2014

  Actual Average Record
Temperature  
Mean Temperature 82 °F -  
Max Temperature 97 °F 94 °F 107 °F (2011)
Min Temperature 68 °F 70 °F 63 °F (2012)
Cooling Degree Days 17    
Growing Degree Days 32 (Base 50)    
Moisture  
Dew Point 65 °F    
Average Humidity 66    
Maximum Humidity 94    
Minimum Humidity 32    
Precipitation  
Precipitation 0.00 in - - ()
Sea Level Pressure  
Sea Level Pressure 29.85 in    
Wind  
Wind Speed 6 mph (SE)    
Max Wind Speed 18 mph    
Max Gust Speed 24 mph    
Visibility 10 miles    
Events      
Averages and records for this station are not official NWS values.
T = Trace of Precipitation, MM = Missing Value Source: NWS Daily Summary

Daily Weather History Graph

Daily Weather History Graph

Search for Another Location

Airport or City:

Trip Planner

Search our weather history database for the weather conditions in past years. The results will help you decide how hot, cold, wet, or windy it might be!

Date:

Astronomy

Aug. 19, 2014 Rise Set
Actual Time 7:00 AM CDT 8:20 PM CDT
Civil Twilight 6:34 AM CDT 8:46 PM CDT
Nautical Twilight 6:02 AM CDT 9:17 PM CDT
Astronomical Twilight 5:29 AM CDT 9:50 PM CDT
Moon 1:58 AM CDT (8/19) 4:13 PM CDT (8/19)
Length of Visible Light 14h 12m
Length of Day
13h 19m
Waning Crescent, 29% of the Moon is Illuminated
Aug 19
Waning Crescent
Aug 25
New
Sep 2
First Quarter
Sep 8
Full
Sep 15
Last Quarter

Hourly Weather History & Observations

Time (CDT) Temp. Heat Index Dew Point Humidity Pressure Visibility Wind Dir Wind Speed Gust Speed Precip Events Conditions
12:58 AM 73.9 °F - 62.6 °F 68% 29.85 in 10.0 mi SE 3.5 mph - N/A   Clear
1:58 AM 73.4 °F - 63.7 °F 71% 29.85 in 8.0 mi South 4.6 mph - N/A   Clear
2:53 AM 71.6 °F - 62.6 °F 73% 29.90 in 9.0 mi Calm Calm - N/A   Clear
2:58 AM 71.1 °F - 63.3 °F 76% 29.85 in 9.0 mi ENE 1.2 mph - N/A   Clear
3:03 AM 71.6 °F - 64.4 °F 78% 29.90 in 9.0 mi ENE 2.3 mph - N/A   Clear
3:18 AM 69.8 °F - 64.4 °F 83% 29.91 in 10.0 mi East 6.9 mph - N/A   Clear
3:28 AM 69.8 °F - 62.6 °F 78% 29.91 in 9.0 mi SE 4.6 mph - N/A   Clear
3:43 AM 69.8 °F - 64.4 °F 83% 29.90 in 10.0 mi ESE 4.6 mph - N/A   Clear
3:58 AM 68.7 °F - 63.7 °F 84% 29.86 in 10.0 mi SE 6.9 mph - N/A   Clear
4:23 AM 69.8 °F - 66.2 °F 88% 29.90 in 9.0 mi SE 3.5 mph - N/A   Clear
4:33 AM 69.8 °F - 64.4 °F 83% 29.91 in 9.0 mi ESE 1.2 mph - N/A   Clear
4:43 AM 69.8 °F - 64.4 °F 83% 29.90 in 9.0 mi SE 4.6 mph - N/A   Clear
4:58 AM 68.7 °F - 65.3 °F 89% 29.86 in 9.0 mi East 2.3 mph - N/A   Clear
5:18 AM 68.0 °F - 64.4 °F 88% 29.91 in 10.0 mi ESE 5.8 mph - N/A   Clear
5:38 AM 68.0 °F - 66.2 °F 94% 29.91 in 9.0 mi SE 4.6 mph - N/A   Clear
5:58 AM 68.0 °F - 66.2 °F 94% 29.85 in 9.0 mi South 4.6 mph - N/A   Clear
6:13 AM 68.0 °F - 66.2 °F 94% 29.90 in 8.0 mi South 3.5 mph - N/A   Clear
6:58 AM 68.5 °F - 65.8 °F 91% 29.86 in 10.0 mi North 2.3 mph - N/A   Clear
7:58 AM 70.7 °F - 67.6 °F 90% 29.86 in 9.0 mi North 3.5 mph - N/A   Clear
8:58 AM 77.5 °F - 66.9 °F 70% 29.88 in 10.0 mi SSW 8.1 mph - N/A   Clear
9:58 AM 80.8 °F 83.2 °F 66.9 °F 63% 29.88 in 10.0 mi SW 5.8 mph - N/A   Clear
10:58 AM 85.3 °F 87.9 °F 66.7 °F 54% 29.87 in 10.0 mi SSW 10.4 mph - N/A   Clear
11:58 AM 89.1 °F 92.1 °F 66.7 °F 48% 29.87 in 10.0 mi South 10.4 mph 18.4 mph N/A   Clear
12:58 PM 91.6 °F 94.8 °F 66.6 °F 44% 29.84 in 10.0 mi South 16.1 mph 19.6 mph N/A   Clear
1:58 PM 93.6 °F 95.9 °F 64.9 °F 39% 29.82 in 10.0 mi South 17.3 mph 21.9 mph N/A   Partly Cloudy
2:40 PM 95.0 °F 98.5 °F 66.2 °F 39% 29.86 in 9.0 mi South 16.1 mph 21.9 mph N/A   Scattered Clouds
2:43 PM 95.0 °F 97.0 °F 64.4 °F 36% 29.86 in 10.0 mi SSE 17.3 mph 21.9 mph N/A   Partly Cloudy
2:58 PM 94.3 °F 96.7 °F 64.8 °F 38% 29.80 in 10.0 mi SSE 12.7 mph 21.9 mph N/A   Partly Cloudy
3:58 PM 95.5 °F 97.9 °F 64.4 °F 36% 29.78 in 10.0 mi SSE 13.8 mph 24.2 mph N/A   Partly Cloudy
4:58 PM 94.3 °F 95.8 °F 63.1 °F 36% 29.76 in 10.0 mi SSE 15.0 mph 19.6 mph N/A   Partly Cloudy
5:58 PM 96.6 °F 97.7 °F 62.6 °F 32% 29.75 in 10.0 mi SE 17.3 mph - N/A   Scattered Clouds
6:58 PM 92.8 °F 93.5 °F 62.1 °F 36% 29.75 in 10.0 mi SE 18.4 mph 24.2 mph N/A   Partly Cloudy
7:58 PM 89.2 °F 91.3 °F 65.7 °F 45% 29.75 in 10.0 mi SSE 17.3 mph - N/A   Clear
8:58 PM 86.2 °F 87.9 °F 65.1 °F 49% 29.77 in 10.0 mi SSE 13.8 mph - N/A   Scattered Clouds
9:58 PM 82.6 °F 84.3 °F 65.1 °F 55% 29.81 in 10.0 mi SE 10.4 mph - N/A   Partly Cloudy
10:58 PM 82.4 °F 84.6 °F 66.2 °F 58% 29.82 in 10.0 mi SE 8.1 mph - N/A   Scattered Clouds
11:58 PM 79.9 °F - 66.6 °F 64% 29.83 in 10.0 mi SE 9.2 mph - N/A   Clear